Retour au catalogue

SL-8 DEB

ActifLEO
NORAD 1477·DEBRIS·🇷🇺 Russia

Lancé Mar 15, 1965 depuis Baikonur Cosmodrome

Loading…

Prochains Passages (prochaines 24 heures)

TLE

FraisSource: Space-Track

Époque: Sep 14, 2026, 14:49 UTC

1 01477U 65020BB  26257.61781724 -.00000699  00000-0 -85876-3 0  9993
2 01477  55.4932 339.1690 0588895 107.3267 259.2930 12.99749713889848

Suivez SL-8 DEB en temps réel avec AllMySat

Download on the App Store